SUSAT

Last updated on April 5, 2018, 12:15 a.m. UTC

1 42730U 98067MK  18094.17289838  .00020043  00000-0  19454-3 0  9999
2 42730  51.6375  13.9646 0001233 335.1063  24.9873 15.66327196 48724
UTC
Height (km)
Latitude
Longitude
Inclination
Orbital Period
UTC large
Height (km)
Speed (km/s)
/
Latitude / Longitude
Inclination (degrees)
Orbital Period (minutes)
Azimuth
Elevation
Range (km)
Doppler Factor
iOS Compass Heading
iOS Angle

Next 30 passes for location: Hong Kong

Rise time Rise Azimuth (degrees) Set time Set Azimuth (degrees) Duration Max altitude (degrees)

No matching passes for this satellites